658  
ASUS46 KOTX 161125  
RWROTX  
 
EASTERN WASHINGTON/NORTHERN IDAHO ROUNDUP  
NATIONAL WEATHER SERVICE, SPOKANE WA  
400 AM PDT SAT OCT 16 2021  
 
NOTE: "FAIR" INDICATED FEW OR NO CLOUDS BELOW 12,000 FEET WITH NO  
SIGNIFICANT WEATHER AND/OR S TO VISIBILITY
.  
   
..NORTHEAST WASHINGTON AND NORTHERN IDAHO PANHANDLE
 
 
 
CITY SKY/WX TMP DP RH WIND PRES REMARKS
 
SPOKANE INTL PTCLDY 42 40 92 E3 30.13F  
SPOKANE DOWNTO PTCLDY 42 41 96 CALM 30.14F FOG  
COEUR D ALENE PTCLDY 40 39 97 E7 30.16S  
DEER PARK CLOUDY 45 41 86 N3 30.14F  
SANDPOINT N/A 39 39 100 CALM 30.16S  
BONNERS FERRY CLOUDY 43 39 87 CALM 30.16F  
   
..SOUTHEAST WASHINGTON AND SOUTHERN IDAHO PANHANDLE
 
 
 
CITY SKY/WX TMP DP RH WIND PRES REMARKS
 
WALLA WALLA CLEAR 48 34 58 E8 30.11F  
PULLMAN/MOSCOW CLEAR 44 33 65 NE3 30.17F  
LEWISTON CLEAR 48 34 58 CALM 30.15F  
LOWELL N/A 41 40 96 NW3 30.27F  
GRANGEVILLE FAIR 43 32 65 NE13G21 30.19R  
   
..COLUMBIA BASIN
 
 
 
CITY SKY/WX TMP DP RH WIND PRES REMARKS
 
EPHRATA CLEAR 42 37 82 N5 30.10S  
MOSES LAKE CLEAR 40 37 89 CALM 30.11S  
PASCO CLEAR 40 37 89 N3 30.11F  
RICHLAND SUNNY 41 40 95 CALM 30.11S  
HERMISTON CLEAR 43 38 82 S6 30.12F  
PENDLETON CLEAR 41 33 73 CALM 30.12F  
   
..EAST SLOPES CASCADES
 
 
 
CITY SKY/WX TMP DP RH WIND PRES REMARKS
 
THE DALLES PTCLDY 47 42 83 CALM 30.14F  
YAKIMA PTCLDY 34 34 100 W7 30.11F WCI 28  
ELLENSBURG PTCLDY 36 31 82 NE3 30.11F  
STAMPEDE PASS CLOUDY 42 38 85 CALM 30.10F  
WENATCHEE CLEAR 46 38 73 W7 30.10F  
WINTHROP FAIR 42 41 96 CALM 30.10F  
OMAK PTCLDY 50 42 74 SE6 30.10F  
SUNNYSIDE SUNNY 38 35 89 CALM 30.10F  
   
..SOUTHERN BRITISH COLUMBIA
 
 
 
CITY SKY/WX TMP DP RH WIND PRES REMARKS
 
PENTICTON LGT RAIN 54 45 71 S13G22 30.04F  
CRANBROOK PTCLDY 45 37 76 NW5 30.13F  
OSOYOOS N/A 54 45 71 SE3 N/A  
CRESTON N/A 45 43 93 E3 N/A  
   
..WESTERN MONTANA
 
 
 
CITY SKY/WX TMP DP RH WIND PRES REMARKS
 
KALISPELL CLOUDY 38 35 89 CALM 30.17S  
LIBBY N/A 39 39 100 CALM 30.17S  
MISSOULA CLEAR 37 30 75 CALM 30.22S  
   
..NEIGHBORING CITIES
 
 
 
CITY SKY/WX TMP DP RH WIND PRES REMARKS
 
SEATTLE CLOUDY 54 48 80 SE6 30.07F  
PORTLAND PTCLDY 49 45 86 SE6 30.14F  
BOISE CLEAR 40 29 64 E5 30.27R  
GREAT FALLS CLEAR 50 28 43 S13 30.12R  
CALGARY MOCLDY 45 27 49 SW8 29.92S  
 
CLICK HERE TO GO TO PREVIOUS BULLETINS.

The Nexlab WA Page
The Nexlab ID Page Main Text Page